Flag for Cyprus Weather past 2 weeks in Larnaca, Cyprus

Now
75 °F

Passing clouds.


Feels Like: 77 °F
Forecast: 57 / 77 °F
Wind: 9 mph from Southeast

Location: Larnaca Airport

Current Time: Oct 21, 2014 at 12:51:50 PM

Latest Report: Oct 21, 2014 at 12:00 PM


Visibility: N/A

Pressure: 29.98 "Hg

Humidity: 36%

Dew point: 46 °F

Location of LarnacaLocation

Historic Weather in Larnaca — Graph

°F

Larnaca temperature yesterday

Maximum temperature yesterday: 77 °F (at 2:30 PM)
Minimum temperature yesterday: 59 °F (at 4:30 AM)
Average temperature yesterday: 68 °F

Past Weeks' High & Low Weather Summary

 TemperatureHumidityPressure
High86 °F (Oct 8, 12:00 PM)88% (Oct 7, 4:30 AM)30.09 "Hg (Oct 7, 4:30 AM)
Low55 °F (Oct 21, 7:00 AM)17% (Oct 20, 2:30 PM)29.77 "Hg (Oct 19, 4:00 AM)
Average72 °F63%29.94 "Hg
* Reported Oct 6 11:00 AM — Oct 21 11:30 AM, Larnaca, Weather by CustomWeather, © 2014

Note: Actual official high and low records may vary slightly from our data, if they occured in-between our weather recording intervals... More about our weather records

Advertising

Larnaca weather history for previous 24 hours

 ConditionsComfort  
Time TempWeatherWind HumidityBarometerVisibility
11:30 AM
Oct 21
77 °FPassing clouds.6 mph34%29.98 "HgN/A
11:00 AM75 °FPassing clouds.5 mph36%30.01 "HgN/A
10:30 AM75 °FPassing clouds.5 mph34%30.01 "HgN/A
10:00 AM72 °FPassing clouds.2 mph36%30.01 "HgN/A
9:30 AM72 °FPassing clouds.5 mph38%29.98 "HgN/A
9:00 AM70 °FPassing clouds.5 mph38%29.98 "HgN/A
8:30 AM66 °FPassing clouds.3 mph43%29.98 "HgN/A
8:00 AM63 °FPassing clouds.6 mph45%29.98 "HgN/A
7:30 AM57 °FPassing clouds.7 mph51%29.98 "HgN/A
7:00 AM55 °FPassing clouds.7 mph55%29.95 "HgN/A
6:00 AM57 °FPassing clouds.7 mph51%29.95 "HgN/A
5:30 AM57 °FPassing clouds.7 mph51%29.95 "HgN/A
5:00 AM57 °FClear.7 mph51%29.95 "Hg10 mi
4:30 AM59 °FClear.8 mph48%29.95 "Hg10 mi
4:00 AM59 °FClear.7 mph48%29.95 "Hg10 mi
3:30 AM59 °FClear.9 mph48%29.95 "Hg10 mi
3:00 AM59 °FClear.8 mph48%29.95 "Hg10 mi
2:30 AM59 °FClear.8 mph48%29.95 "Hg10 mi
2:00 AM59 °FClear.8 mph48%29.95 "Hg10 mi
1:30 AM59 °FClear.9 mph45%29.95 "Hg10 mi
1:00 AM59 °FClear.7 mph48%29.95 "Hg10 mi
12:30 AM59 °FClear.7 mph45%29.95 "Hg10 mi
12:00 AM59 °FClear.8 mph45%29.95 "Hg10 mi
11:30 PM
Oct 20
59 °FClear.8 mph45%29.95 "Hg10 mi
11:00 PM61 °FClear.7 mph42%29.95 "Hg10 mi
10:30 PM61 °FPassing clouds.6 mph39%29.95 "HgN/A
10:00 PM61 °FClear.6 mph39%29.95 "Hg10 mi
9:30 PM61 °FClear.6 mph39%29.95 "Hg10 mi
9:00 PM61 °FClear.7 mph39%29.92 "Hg10 mi
8:30 PM61 °FPassing clouds.5 mph36%29.92 "HgN/A
8:00 PM66 °FPassing clouds.5 mph32%29.92 "HgN/A
7:30 PM68 °FPassing clouds.6 mph33%29.92 "HgN/A
7:00 PM70 °FPassing clouds.6 mph40%29.92 "HgN/A
6:30 PM70 °FPassing clouds.2 mph38%29.92 "HgN/A
6:00 PM72 °FPassing clouds.5 mph36%29.89 "HgN/A
5:30 PM72 °FPassing clouds.7 mph36%29.89 "HgN/A
5:00 PM73 °FPassing clouds.10 mph31%29.89 "HgN/A
4:30 PM73 °FSunny.10 mph29%29.89 "Hg10 mi
4:00 PM73 °FPassing clouds.8 mph31%29.89 "HgN/A
3:30 PM75 °FPassing clouds.13 mph29%29.89 "HgN/A
3:00 PM75 °FPassing clouds.14 mph27%29.89 "HgN/A
2:30 PM77 °FPassing clouds.8 mph17%29.89 "HgN/A
2:00 PM75 °FPassing clouds.7 mph18%29.89 "HgN/A
1:30 PM75 °FPassing clouds.10 mph19%29.89 "HgN/A
1:00 PM75 °FPassing clouds.9 mph22%29.92 "HgN/A
12:30 PM73 °FPassing clouds.10 mph25%29.92 "HgN/A
12:00 PM73 °FPassing clouds.9 mph23%29.92 "HgN/A
Weather by CustomWeather, © 2014

See weather overviewHow to use our weather pages